This is the latest recevied weather packets stored in our database for station/object N8XHB. If no packets are shown the sender has not sent any weather packets the latest 10 day(s).
| Time | Temp. | Humidity | Pressure | Rain* | Wind** | Luminosity | Snow |
|---|---|---|---|---|---|---|---|
| 1777828124 | 16.11° C | 48% | 1011.4 hPa | 0 mm | - | 896 W/m² | - |
| 1777827820 | 15.56° C | 45% | 1011.5 hPa | 0 mm | - | 877 W/m² | - |
| 1777827517 | 15° C | 47% | 1011.7 hPa | 0 mm | - | 904 W/m² | - |
| 1777827215 | 15° C | 46% | 1011.6 hPa | 0 mm | - | 775 W/m² | - |
| 1777826911 | 14.44° C | 47% | 1011.7 hPa | 0 mm | - | 616 W/m² | - |
| 1777826609 | 14.44° C | 47% | 1011.7 hPa | 0 mm | - | 357 W/m² | - |
| 1777826304 | 13.89° C | 49% | 1011.8 hPa | 0 mm | - | 726 W/m² | - |
| 1777826002 | 13.33° C | 48% | 1011.8 hPa | 0 mm | - | 425 W/m² | - |
| 1777825699 | 13.33° C | 47% | 1012 hPa | 0 mm | - | 265 W/m² | - |
| 1777825397 | 12.78° C | 48% | 1012 hPa | 0 mm | - | 308 W/m² | - |
| 1777825094 | 13.33° C | 46% | 1012 hPa | 0 mm | - | 299 W/m² | - |
| 1777824790 | 13.33° C | 47% | 1012.2 hPa | 0 mm | - | 350 W/m² | - |
| 1777824487 | 13.33° C | 47% | 1012 hPa | 0 mm | - | 357 W/m² | - |
| 1777824183 | 13.33° C | 46% | 1012.4 hPa | 0 mm | - | 356 W/m² | - |
| 1777823878 | 12.78° C | 45% | 1012.2 hPa | 0 mm | - | 391 W/m² | - |
| 1777823577 | 13.33° C | 45% | 1012.4 hPa | 0 mm | - | 277 W/m² | - |
| 1777823273 | 12.78° C | 46% | 1012.4 hPa | 0 mm | - | 266 W/m² | - |
| 1777822971 | 12.78° C | 46% | 1012.5 hPa | 0 mm | - | 268 W/m² | - |
| 1777822669 | 12.78° C | 45% | 1012.3 hPa | 0 mm | - | 269 W/m² | - |
| 1777822366 | 12.78° C | 47% | 1012.5 hPa | 0 mm | - | 206 W/m² | - |
| 1777822064 | 12.78° C | 46% | 1012.3 hPa | 0 mm | - | 193 W/m² | - |
| 1777821762 | 12.78° C | 46% | 1012.4 hPa | 0 mm | - | 169 W/m² | - |
| 1777821458 | 12.78° C | 46% | 1012.1 hPa | 0 mm | - | 183 W/m² | - |
| 1777821156 | 12.78° C | 47% | 1012.3 hPa | 0 mm | - | 190 W/m² | - |
| 1777820853 | 12.78° C | 47% | 1012.3 hPa | 0 mm | - | 264 W/m² | - |
* Rain latest hour (hover to see other rain measurements)
** Current wind speed in m/s (hover to see current wind gust speed)